Miscellaneous Local Product
Issued by NWS North Platte, NE

Home | Current Version | Previous Version | Text Only | Print | Product List | Glossary On
Versions: 1 2 3 4 5 6 7 8 9 10 11 12 13 14 15 16 17 18 19 20 21 22 23 24 25 26 27 28 29 30 31 32 33 34 35 36 37 38 39 40 41 42 43 44 45 46 47 48 49 50
771
AXUS43 KLBF 300310
MISLBF


WESTERN AND NORTH CENTRAL NEBRASKA HOURLY WEATHER ROUNDUP
NATIONAL WEATHER SERVICE NORTH PLATTE NE
1000 PM CDT SUN MAY 29 2016

NOTE: "FAIR" INDICATES FEW OR NO CLOUDS BELOW 12,000 FEET WITH NO
SIGNIFICANT WEATHER AND/OR OBSTRUCTIONS TO VISIBILITY.

NOTE: STATIONS NOT REPORTING VARIABLES SUCH AS SKY/WEATHER OR
PRESSURE ARE PROVIDED BY RAWS AND APRS NETWORKS AND ARE NOT UNDER
NATIONAL WEATHER SERVICE QUALITY CONTROL.

...OBSERVATIONS IN AND NEAR THE EASTERN PANHANDLE OF NEBRASKA...

CITY           SKY/WX    TMP DP  RH WIND       PRES   REMARKS
PINE RIDGE     CLOUDY    65  51  60 E6        29.97R
CHADRON        CLOUDY    62  52  69 W7        29.98R
ALLIANCE       CLOUDY    63  52  67 CALM      30.00R
SIDNEY         CLOUDY    62  47  57 NE9       30.02F
CRESCENT LAKE    N/A     69  48  47 SW6         N/A
BIG SPRINGS      N/A     69  55  60 S15         N/A
$$

...OBSERVATIONS IN NORTHERN NEBRASKA AND FAR SOUTHERN SOUTH DAKOTA...

CITY           SKY/WX    TMP DP  RH WIND       PRES   REMARKS
WINNER         FAIR      67  56  67 SE10      29.98S
VALENTINE      PTCLDY    68  56  65 E10       29.99R
THEDFORD       CLOUDY    69  56  62 S15       30.03R
AINSWORTH      CLOUDY    69  58  69 E9        30.00R
O`NEILL        CLOUDY    69  57  66 E8        30.02R
ORD            CLOUDY    72  56  57 S9        29.99R THUNDER
BROKEN BOW     CLOUDY    66  56  70 SW9       30.04R
BUTTE            N/A     68  58  71 E10         N/A
CHAMBERS         N/A     69  58  68 E6          N/A
EWING            N/A     68  60  75 E3          N/A
$$

...OBSERVATIONS IN SOUTHWEST NEBRASKA AND FAR NORTHEAST COLORADO...

CITY           SKY/WX    TMP DP  RH WIND       PRES   REMARKS
WRAY           CLOUDY    61  54  77 E17G24    30.07R
IMPERIAL       CLOUDY    62  52  69 S21G39    30.03R
OGALLALA       CLOUDY    65  51  60 E8        30.05R
NORTH PLATTE   CLOUDY    64  51  62 S17       30.06R
MCCOOK         CLOUDY    66  51  58 SW10G17   30.03S
LEXINGTON      CLOUDY    68  52  55 NW9       30.04R
PAXTON           N/A     69  53  55 SE13        N/A
STAPLETON        N/A     62  56  82 CALM        N/A
GOTHENBURG       N/A     66  53  62 N5          N/A
CALLAWAY         N/A     64  54  70 W9          N/A
$$

...OBSERVATIONS IN CENTRAL LINCOLN COUNTY AREA...

CITY           SKY/WX    TMP DP  RH WIND       PRES   REMARKS
N.P. AIRPORT   CLOUDY    64  51  62 S17       30.06R
N.P. DOWNTOWN    N/A     66  53  64 SE5G14      N/A
N.P. HILLCREST   N/A     64  54  71 S12G18      N/A
$$

...SOME OBSERVATIONS FROM AROUND THE REGION...

CITY           SKY/WX    TMP DP  RH WIND       PRES   REMARKS
DENVER         CLOUDY    60  41  49 N10       30.11R
LARAMIE        CLOUDY    48  41  76 S9        30.19F
CHEYENNE       CLOUDY    56  42  59 W9        30.14F
SCOTTSBLUFF    PTCLDY    62  45  53 N3        30.02R
RAPID CITY     CLEAR     61  53  75 E10       29.98R
BISMARCK       CLEAR     67  49  52 CALM      29.94S
PIERRE         CLEAR     64  54  69 E8        29.96R
SIOUX FALLS    CLEAR     59  54  83 CALM      30.03R
OMAHA          CLOUDY    75  59  57 CALM      29.99R
GRAND ISLAND   CLOUDY    69  58  67 S14       30.03R
KANSAS CITY    CLOUDY    68  61  78 S8        30.05R
WICHITA        CLOUDY    71  56  58 SW3       30.06R
OKLAHOMA CITY  MOCLDY    74  56  53 NW18      30.05R
DALLAS         CLOUDY    75  66  73 E10       30.02F
AMARILLO       CLOUDY    57  53  86 SE18G28   30.17R
DODGE CITY     CLOUDY    63  54  72 S3        30.09R
HAYS           CLOUDY    64  52  63 SE15      30.06S
GOODLAND       CLOUDY    60  50  69 S28G38    30.03F
$$




USA.gov is the U.S. government's official web portal to all federal, state and local government web resources and services.